Regional Weather Roundup
Issued by NWS

Home | Current Version | Previous Version | Graphics & Text | Print | Product List | Glossary On
Versions: 1 2 3 4 5 6 7 8 9 10 11 12 13 14 15 16 17 18 19 20 21 22 23 24 25 26 27 28 29 30 31 32 33 34 35 36 37 38 39 40 41 42 43 44 45 46 47 48 49 50
276
ASUS43 KTOP 242059
RWRKS

WEATHER ROUNDUP FOR KANSAS
NATIONAL WEATHER SERVICE GOODLAND KS
400 PM CDT SUN JUL 24 2016

NOTE:  "FAIR" INDICATES FEW OR NO CLOUDS BELOW 12,000 FEET WITH NO
SIGNIFICANT WEATHER AND/OR OBSTRUCTIONS TO VISIBILITY.

KSZ001>006-013>018-027>032-041>047-242200-
NORTHWEST KANSAS

CITY           SKY/WX    TMP DP  RH WIND       PRES   REMARKS
GOODLAND       LGT RAIN  91  57  31 E18G24    30.08F
HAYS           SUNNY     91  66  43 NE20G25   29.99R
HILL CITY      SUNNY     90  64  42 E15       30.03F
RUSSELL        CLOUDY    91  67  44 E17       29.97R
$$

KSZ061>065-074>080-084>089-242200-
SOUTHWEST KANSAS

CITY           SKY/WX    TMP DP  RH WIND       PRES   REMARKS
DODGE CITY     CLOUDY    90  64  42 S3        29.98F
ELKHART          N/A     91  61  36 N5          N/A
GARDEN CITY    MOSUNNY   92  66  42 S6        29.99F
GREAT BEND     CLOUDY    97  64  34 SE9       29.94S HX  99
LIBERAL        CLOUDY    91  61  35 NE3       30.00F
$$

KSZ066>073-081>083-090>101-242200-
SOUTHEAST KANSAS

CITY           SKY/WX    TMP DP  RH WIND       PRES   REMARKS
CHANUTE        SUNNY     97  73  45 VRB6      29.93F HX 107
COFFEYVILLE    SUNNY    101  70  36 S10       29.91F HX 108
HUTCHINSON     CLOUDY    96  69  41 E7        29.93F HX 102
NEWTON         CLOUDY    94  72  48 SE8       29.95S HX 102
PARSONS        SUNNY     98  73  44 SW6       29.93F HX 108
WICHITA INTL   PTSUNNY   99  69  37 CALM      29.91S HX 105
WICHITA JABRA  CLOUDY    92  75  57 E5        29.92F HX 103
WINFIELD       MOSUNNY  100  67  33 S15       29.92S HX 105
$$

KSZ007>012-019>026-033>040-048>060-102>105-242200-
NORTHEAST KANSAS

CITY           SKY/WX    TMP DP  RH WIND       PRES   REMARKS
CONCORDIA      CLOUDY    80  67  64 NE8       30.02R
EMPORIA        CLOUDY    99  71  40 VRB7      29.93S HX 107
LAWRENCE       CLOUDY    91  79  67 NE5       29.93S HX 107
MANHATTAN      CLOUDY    88  74  63 N10       29.96S HX  96
OLATHE IND     CLOUDY    95  74  50 NE5       29.94F HAZE    HX 105
OLATHE EXE     CLOUDY    94  73  50 CALM      29.94S HX 103
SALINA         CLOUDY    95  69  42 NE14      29.95S HX 100
TOPEKA BILLARD CLOUDY    93  73  52 NW6       29.95R HX 102
TOPEKA FORBES  CLOUDY    93  74  53 N6        29.95S HX 103
$$




USA.gov is the U.S. government's official web portal to all federal, state and local government web resources and services.